Torna al catalogo

STARLINK-36053

AttivoComunicazioniVLEO
NORAD 66875·PAYLOAD·🇺🇸 United States

Lanciato Dec 2, 2025 da Cape Canaveral Space Force Station

Loading…

Prossimi Passaggi (prossime 24 ore)

TLE

AggiornatoSource: CelesTrak SupGP

Epoca: Sep 15, 2026, 03:23 UTC

1 66875C 25281AD  26258.14145833  .00043719  00000+0  15836-2 0  2588
2 66875  43.0014 353.4185 0001514 260.2083   9.0574 15.27554019    12

Traccia STARLINK-36053 in tempo reale con AllMySat

Download on the App Store